Tracking 18984 objects as of 23-Feb-2018
HD Live streaming from Space Station
objects crossing your sky now

FENGYUN 1C DEB

Track FENGYUN 1C DEB now!
10-day predictions


NORAD ID: 30709
Int'l Code: 1999-025ART
Perigee: 835.0 km
Apogee: 978.5 km
Inclination: 99.1 °
Period: 103.0 minutes
Semi major axis: 7277 km
RCS: 0.0194 m2 (small)
Launch date: May 10, 1999
Source: People's Republic of China (PRC)
Launch site: Taiyaun Space Center, China (TSC)

Note: This is SATELLITE DEBRIS
aabbcc
Your satellite tracking list
Your tracking list is empty




NASA's NSSDC Master Catalog

Two Line Element Set (TLE):
1 30709U 99025ART 18054.29363028  .00000517  00000-0  37758-3 0  9991
2 30709  99.0803 350.9454 0098597 242.8658 271.8063 13.98328857560724
Source of the keplerian elements: AFSPC